DLH7C LSZH-EDDF

Flight info

Callsign DLH7C
Flight time 0h 37m
Altitude 22000
Route DEGES3W DEGES Z1 SUDEN T164 KOVAN T163 SPESA SPESA5B
Aircraft A320/M-SDE3FGHIRWY/LB1

Departure

Time 2026-05-05 18:36
Airport Zürich Airport (LSZH)

Arrival

Time 2026-05-05 19:13
Airport Frankfurt Main Airport (EDDF)
Time Latitude Longitude Altitude Speed Heading
2026-05-05 17:23 47.45413 8.56002 1397 ft 0 kts 186°
2026-05-05 18:28 47.45443 8.56005 1404 ft 4 kts 178°
2026-05-05 18:28 47.45470 8.56000 1399 ft 4 kts 161°
2026-05-05 18:28 47.45490 8.55982 1407 ft 4 kts 110°
2026-05-05 18:29 47.45493 8.55967 1402 ft 1 kts 96°
2026-05-05 18:31 47.45492 8.55969 1401 ft 2 kts 96°
2026-05-05 18:32 47.45489 8.56012 1397 ft 4 kts 96°
2026-05-05 18:32 47.45485 8.56062 1399 ft 9 kts 96°
2026-05-05 18:32 47.45479 8.56150 1397 ft 8 kts 96°
2026-05-05 18:32 47.45482 8.56220 1397 ft 6 kts 68°
2026-05-05 18:33 47.45506 8.56267 1402 ft 5 kts 49°
2026-05-05 18:33 47.45530 8.56309 1402 ft 9 kts 50°
2026-05-05 18:33 47.45582 8.56405 1400 ft 12 kts 52°
2026-05-05 18:33 47.45592 8.56512 1397 ft 10 kts 97°
2026-05-05 18:34 47.45585 8.56604 1397 ft 8 kts 96°
2026-05-05 18:34 47.45577 8.56708 1404 ft 13 kts 95°
2026-05-05 18:34 47.45567 8.56864 1397 ft 17 kts 96°
2026-05-05 18:34 47.45568 8.56985 1398 ft 9 kts 70°
2026-05-05 18:35 47.45602 8.57019 1404 ft 5 kts
2026-05-05 18:35 47.45639 8.57006 1404 ft 6 kts 335°
2026-05-05 18:35 47.45668 8.56922 1399 ft 18 kts 276°
2026-05-05 18:35 47.45704 8.56394 1399 ft 88 kts 276°
2026-05-05 18:36 47.45792 8.55132 1404 ft 148 kts 275°
2026-05-05 18:36 47.45916 8.53516 1836 ft 159 kts 275°
2026-05-05 18:36 47.46048 8.51922 2603 ft 158 kts 274°
2026-05-05 18:36 47.46155 8.50301 3306 ft 159 kts 273°
2026-05-05 18:37 47.46254 8.48577 3677 ft 174 kts 269°
2026-05-05 18:37 47.45854 8.46827 3893 ft 197 kts 233°
2026-05-05 18:37 47.44956 8.45161 4384 ft 210 kts 234°
2026-05-05 18:37 47.44186 8.43341 5310 ft 209 kts 242°
2026-05-05 18:38 47.43529 8.41432 6174 ft 209 kts 244°
2026-05-05 18:38 47.42897 8.39495 7005 ft 211 kts 244°
2026-05-05 18:38 47.42006 8.37732 7777 ft 216 kts 218°
2026-05-05 18:38 47.40551 8.36926 8564 ft 225 kts 185°
2026-05-05 18:39 47.39031 8.37480 9321 ft 238 kts 152°
2026-05-05 18:39 47.37821 8.39230 9821 ft 265 kts 125°
2026-05-05 18:39 47.37342 8.40959 10042 ft 287 kts 103°
2026-05-05 18:39 47.37347 8.45253 10448 ft 323 kts 88°
2026-05-05 18:40 47.37527 8.48597 10718 ft 346 kts 87°
2026-05-05 18:40 47.37674 8.50945 10864 ft 361 kts 86°
2026-05-05 18:40 47.38002 8.56068 11349 ft 383 kts 86°
2026-05-05 18:40 47.38243 8.60002 12015 ft 389 kts 87°
2026-05-05 18:41 47.38323 8.61344 12247 ft 390 kts 87°
2026-05-05 18:41 47.38636 8.67014 13236 ft 397 kts 87°
2026-05-05 18:41 47.38903 8.72226 14075 ft 403 kts 88°
2026-05-05 18:41 47.39043 8.75031 14516 ft 405 kts 88°
2026-05-05 18:42 47.39876 8.80443 15393 ft 409 kts 66°
2026-05-05 18:42 47.40799 8.82869 15810 ft 412 kts 54°
2026-05-05 18:42 47.43009 8.86137 16483 ft 414 kts 33°
2026-05-05 18:42 47.45337 8.88124 17017 ft 416 kts 27°
2026-05-05 18:43 47.48027 8.90257 17620 ft 419 kts 27°
2026-05-05 18:43 47.50449 8.92181 18159 ft 423 kts 27°
2026-05-05 18:43 47.53054 8.94255 18666 ft 426 kts 27°
2026-05-05 18:43 47.55664 8.96349 19148 ft 429 kts 28°
2026-05-05 18:44 47.58299 8.98475 19638 ft 432 kts 28°
2026-05-05 18:44 47.60938 9.00612 20116 ft 435 kts 28°
2026-05-05 18:44 47.63639 9.02802 20606 ft 438 kts 28°
2026-05-05 18:44 47.66340 9.04991 21104 ft 440 kts 28°
2026-05-05 18:45 47.69110 9.06912 21546 ft 442 kts 18°
2026-05-05 18:45 47.72103 9.07852 21794 ft 442 kts
2026-05-05 18:45 47.75159 9.08486 21880 ft 450 kts
2026-05-05 18:45 47.78326 9.09110 21881 ft 462 kts
2026-05-05 18:46 47.81555 9.09726 21878 ft 469 kts
2026-05-05 18:46 47.84812 9.10349 21880 ft 471 kts
2026-05-05 18:46 47.88072 9.10983 21873 ft 471 kts
2026-05-05 18:46 47.91365 9.11635 21877 ft 470 kts
2026-05-05 18:47 47.94612 9.12287 21878 ft 470 kts
2026-05-05 18:47 47.97892 9.12948 21872 ft 470 kts
2026-05-05 18:47 48.01258 9.13629 21872 ft 470 kts
2026-05-05 18:47 48.04372 9.14257 21868 ft 470 kts
2026-05-05 18:48 48.07625 9.14909 21870 ft 470 kts
2026-05-05 18:48 48.10865 9.15559 21868 ft 470 kts
2026-05-05 18:48 48.14103 9.16210 21863 ft 470 kts
2026-05-05 18:48 48.17350 9.16832 21861 ft 469 kts
2026-05-05 18:49 48.20595 9.17302 21856 ft 469 kts
2026-05-05 18:49 48.23855 9.17642 21854 ft 469 kts
2026-05-05 18:49 48.27108 9.17914 21853 ft 469 kts
2026-05-05 18:49 48.30365 9.18167 21843 ft 469 kts
2026-05-05 18:50 48.33621 9.18439 21841 ft 469 kts
2026-05-05 18:50 48.36884 9.18740 21840 ft 469 kts
2026-05-05 18:50 48.40184 9.19077 21834 ft 469 kts
2026-05-05 18:50 48.43410 9.19429 21834 ft 469 kts
2026-05-05 18:51 48.46707 9.19794 21832 ft 469 kts
2026-05-05 18:51 48.49979 9.20150 21831 ft 470 kts
2026-05-05 18:51 48.53245 9.20498 21826 ft 470 kts
2026-05-05 18:51 48.56500 9.20839 21825 ft 470 kts
2026-05-05 18:52 48.59733 9.21173 21823 ft 470 kts
2026-05-05 18:52 48.63025 9.21513 21825 ft 470 kts
2026-05-05 18:52 48.66284 9.21850 21826 ft 470 kts
2026-05-05 18:52 48.69547 9.22190 21826 ft 470 kts
2026-05-05 18:53 48.72807 9.22533 21829 ft 470 kts
2026-05-05 18:53 48.76064 9.22881 21831 ft 469 kts
2026-05-05 18:53 48.79359 9.23235 21831 ft 469 kts
2026-05-05 18:53 48.82579 9.23580 21833 ft 469 kts
2026-05-05 18:54 48.85838 9.23927 21831 ft 469 kts
2026-05-05 18:54 48.89349 9.24303 21831 ft 469 kts
2026-05-05 18:54 48.92365 9.24626 21831 ft 469 kts
2026-05-05 18:54 48.95617 9.24973 21849 ft 468 kts
2026-05-05 18:55 48.98865 9.25316 21853 ft 468 kts
2026-05-05 18:55 49.02124 9.25662 21854 ft 467 kts
2026-05-05 18:55 49.05365 9.26005 21853 ft 467 kts
2026-05-05 18:55 49.08614 9.26353 21852 ft 467 kts
2026-05-05 18:56 49.11858 9.26703 21854 ft 467 kts
2026-05-05 18:56 49.15102 9.27059 21853 ft 467 kts
2026-05-05 18:56 49.18344 9.27418 21849 ft 467 kts
2026-05-05 18:56 49.21631 9.27782 21844 ft 467 kts
2026-05-05 18:57 49.24878 9.28140 21846 ft 467 kts
2026-05-05 18:57 49.28128 9.28487 21845 ft 467 kts
2026-05-05 18:57 49.31372 9.28829 21844 ft 467 kts
2026-05-05 18:57 49.34583 9.29168 21844 ft 467 kts
2026-05-05 18:58 49.37846 9.29518 21325 ft 463 kts
2026-05-05 18:58 49.41051 9.29870 20517 ft 459 kts
2026-05-05 18:58 49.44222 9.30219 19824 ft 456 kts
2026-05-05 18:58 49.47381 9.30566 19260 ft 452 kts
2026-05-05 18:59 49.50479 9.30911 18705 ft 440 kts
2026-05-05 18:59 49.53490 9.31243 18159 ft 422 kts
2026-05-05 18:59 49.56407 9.31565 17591 ft 411 kts
2026-05-05 18:59 49.59236 9.31873 17063 ft 406 kts
2026-05-05 19:00 49.62037 9.32174 16544 ft 401 kts
2026-05-05 19:00 49.64810 9.32470 16031 ft 397 kts
2026-05-05 19:00 49.67628 9.32775 15507 ft 393 kts
2026-05-05 19:00 49.70283 9.33065 15030 ft 390 kts
2026-05-05 19:01 49.73005 9.33370 14535 ft 386 kts
2026-05-05 19:01 49.75669 9.33576 14058 ft 381 kts 354°
2026-05-05 19:01 49.78254 9.32909 13579 ft 374 kts 345°
2026-05-05 19:01 49.80773 9.32007 13044 ft 370 kts 344°
2026-05-05 19:02 49.83248 9.31108 12585 ft 358 kts 344°
2026-05-05 19:02 49.85574 9.30032 12141 ft 339 kts 332°
2026-05-05 19:02 49.87681 9.28580 11712 ft 327 kts 340°
2026-05-05 19:02 49.89201 9.27943 11412 ft 320 kts 343°
2026-05-05 19:03 49.91290 9.27184 11003 ft 311 kts 344°
2026-05-05 19:03 49.93406 9.26437 10420 ft 308 kts 344°
2026-05-05 19:03 49.95481 9.25702 9825 ft 307 kts 344°
2026-05-05 19:03 49.97585 9.24955 9159 ft 305 kts 344°
2026-05-05 19:04 49.99648 9.24216 8501 ft 303 kts 344°
2026-05-05 19:04 50.01687 9.23481 7985 ft 297 kts 344°
2026-05-05 19:04 50.03547 9.22405 7826 ft 278 kts 322°
2026-05-05 19:04 50.04828 9.20305 7834 ft 265 kts 298°
2026-05-05 19:05 50.05713 9.17826 7836 ft 263 kts 294°
2026-05-05 19:05 50.06561 9.15252 7832 ft 267 kts 294°
2026-05-05 19:05 50.07404 9.12657 7477 ft 268 kts 294°
2026-05-05 19:05 50.08255 9.10037 7100 ft 267 kts 294°
2026-05-05 19:06 50.09091 9.07457 6731 ft 266 kts 294°
2026-05-05 19:06 50.09920 9.04899 6365 ft 265 kts 294°
2026-05-05 19:06 50.10754 9.02327 5984 ft 264 kts 294°
2026-05-05 19:06 50.11573 8.99790 5598 ft 262 kts 294°
2026-05-05 19:07 50.12385 8.97258 5253 ft 259 kts 293°
2026-05-05 19:07 50.13017 8.94674 5061 ft 248 kts 285°
2026-05-05 19:07 50.13373 8.92143 5009 ft 230 kts 270°
2026-05-05 19:07 50.13192 8.89771 5011 ft 212 kts 251°
2026-05-05 19:08 50.12704 8.87667 5010 ft 196 kts 249°
2026-05-05 19:08 50.12253 8.85745 4920 ft 187 kts 249°
2026-05-05 19:08 50.11770 8.83690 4679 ft 184 kts 249°
2026-05-05 19:08 50.11362 8.81958 4457 ft 184 kts 249°
2026-05-05 19:09 50.10924 8.80102 4195 ft 183 kts 249°
2026-05-05 19:09 50.10484 8.78235 3929 ft 183 kts 249°
2026-05-05 19:09 50.10042 8.76366 3660 ft 183 kts 250°
2026-05-05 19:09 50.09604 8.74511 3405 ft 183 kts 250°
2026-05-05 19:10 50.09161 8.72641 3144 ft 184 kts 249°
2026-05-05 19:10 50.08717 8.70765 2874 ft 185 kts 250°
2026-05-05 19:10 50.08269 8.68872 2599 ft 187 kts 250°
2026-05-05 19:10 50.07823 8.66993 2356 ft 179 kts 250°
2026-05-05 19:11 50.07412 8.65263 2093 ft 163 kts 250°
2026-05-05 19:11 50.07032 8.63663 1874 ft 150 kts 250°
2026-05-05 19:11 50.06678 8.62172 1656 ft 144 kts 249°
2026-05-05 19:11 50.06335 8.60730 1451 ft 142 kts 249°
2026-05-05 19:12 50.05989 8.59274 1254 ft 142 kts 249°
2026-05-05 19:12 50.05641 8.57820 1024 ft 144 kts 249°
2026-05-05 19:12 50.05307 8.56401 816 ft 144 kts 249°
2026-05-05 19:12 50.04960 8.54927 628 ft 144 kts 249°
2026-05-05 19:13 50.04605 8.53460 426 ft 144 kts 249°
2026-05-05 19:13 50.04256 8.52015 339 ft 130 kts 249°
2026-05-05 19:13 50.04001 8.50945 326 ft 83 kts 250°
2026-05-05 19:13 50.03866 8.50388 321 ft 33 kts 248°
2026-05-05 19:14 50.03786 8.50048 316 ft 34 kts 249°
2026-05-05 19:14 50.03728 8.49826 313 ft 13 kts 234°
2026-05-05 19:14 50.03637 8.49768 313 ft 16 kts 176°
2026-05-05 19:14 50.03574 8.49821 317 ft 6 kts 133°
2026-05-05 19:15 50.03554 8.49876 318 ft 8 kts 110°
2026-05-05 19:15 50.03552 8.49962 319 ft 7 kts 78°
2026-05-05 19:15 50.03565 8.50020 319 ft 4 kts 70°
2026-05-05 19:15 50.03576 8.50066 321 ft 7 kts 70°
2026-05-05 19:16 50.03600 8.50168 322 ft 12 kts 70°
2026-05-05 19:16 50.03630 8.50291 324 ft 12 kts 69°
2026-05-05 19:16 50.03659 8.50416 325 ft 13 kts 70°
2026-05-05 19:16 50.03694 8.50563 326 ft 16 kts 70°
2026-05-05 19:17 50.03737 8.50739 328 ft 18 kts 70°
2026-05-05 19:17 50.03782 8.50931 333 ft 19 kts 69°
2026-05-05 19:17 50.03833 8.51138 335 ft 22 kts 69°
2026-05-05 19:17 50.03888 8.51369 332 ft 24 kts 70°
2026-05-05 19:18 50.03951 8.51633 336 ft 26 kts 69°
2026-05-05 19:18 50.04015 8.51900 334 ft 25 kts 69°
2026-05-05 19:18 50.04077 8.52158 351 ft 26 kts 69°
2026-05-05 19:18 50.04140 8.52424 355 ft 27 kts 69°
2026-05-05 19:19 50.04204 8.52688 353 ft 22 kts 70°
2026-05-05 19:19 50.04254 8.52898 358 ft 21 kts 69°
2026-05-05 19:19 50.04306 8.53119 359 ft 22 kts 70°
2026-05-05 19:19 50.04357 8.53328 371 ft 20 kts 69°
2026-05-05 19:20 50.04398 8.53553 375 ft 22 kts 82°
2026-05-05 19:20 50.04414 8.53805 375 ft 25 kts 84°
2026-05-05 19:20 50.04433 8.54087 375 ft 27 kts 84°
2026-05-05 19:20 50.04453 8.54370 373 ft 22 kts 85°
2026-05-05 19:21 50.04427 8.54596 369 ft 19 kts 115°
2026-05-05 19:21 50.04348 8.54739 359 ft 17 kts 143°
2026-05-05 19:21 50.04256 8.54805 354 ft 12 kts 160°
2026-05-05 19:21 50.04162 8.54857 359 ft 15 kts 159°
2026-05-05 19:22 50.04090 8.54898 356 ft 10 kts 159°
2026-05-05 19:22 50.04079 8.54904 351 ft 0 kts 159°
2026-05-05 19:23 50.04079 8.54905 351 ft 1 kts 159°
2026-05-05 19:23 50.04053 8.54920 354 ft 7 kts 160°
2026-05-05 19:23 50.04013 8.54976 356 ft 8 kts 110°
2026-05-05 19:24 50.04029 8.55065 360 ft 13 kts 66°
2026-05-05 19:24 50.04076 8.55258 357 ft 21 kts 69°
2026-05-05 19:24 50.04131 8.55487 357 ft 20 kts 70°
2026-05-05 19:24 50.04157 8.55599 360 ft 16 kts 70°
2026-05-05 19:25 50.04199 8.55772 360 ft 17 kts 69°
2026-05-05 19:25 50.04237 8.55930 356 ft 12 kts 69°
2026-05-05 19:25 50.04261 8.56027 359 ft 9 kts 65°
2026-05-05 19:25 50.04302 8.56073 360 ft 7 kts
2026-05-05 19:26 50.04359 8.56047 362 ft 10 kts 339°
2026-05-05 19:26 50.04422 8.56038 356 ft 9 kts 23°
2026-05-05 19:26 50.04451 8.56111 362 ft 8 kts 69°
2026-05-05 19:26 50.04470 8.56191 356 ft 8 kts 70°
2026-05-05 19:27 50.04492 8.56286 359 ft 10 kts 69°
2026-05-05 19:27 50.04510 8.56363 356 ft 5 kts 81°
2026-05-05 19:27 50.04493 8.56398 359 ft 4 kts 144°
2026-05-05 19:27 50.04475 8.56414 360 ft 3 kts 153°
2026-05-05 19:28 50.04461 8.56425 358 ft 2 kts 154°
2026-05-05 19:28 50.04453 8.56431 360 ft 1 kts 154°
2026-05-05 19:28 50.04452 8.56431 360 ft 0 kts 154°